TimeCDT,TemperatureF,Dew PointF,Humidity,Sea Level PressureIn,VisibilityMPH,Wind Direction,Wind SpeedMPH,Gust SpeedMPH,PrecipitationIn,Events,Conditions,WindDirDegrees,DateUTC
12:15 AM,68.9,64.6,86,29.90,10.0,ENE,3.5,-,N/A,,Clear,60,2013-05-10 05:15:00
12:35 AM,68.2,64.4,88,29.91,10.0,Calm,Calm,-,N/A,,Clear,0,2013-05-10 05:35:00
12:55 AM,68.4,63.9,85,29.92,10.0,Calm,Calm,-,N/A,Thunderstorm,Clear,0,2013-05-10 05:55:00
1:15 AM,67.1,64.4,91,29.92,10.0,NNW,3.5,-,N/A,,Clear,340,2013-05-10 06:15:00
1:55 AM,66.4,63.9,92,29.90,7.0,Calm,Calm,-,N/A,,Clear,0,2013-05-10 06:55:00
2:15 AM,66.6,64.4,93,29.92,7.0,Calm,Calm,-,N/A,,Clear,0,2013-05-10 07:15:00
2:35 AM,66.2,63.9,92,29.91,5.0,Calm,Calm,-,N/A,,Clear,0,2013-05-10 07:35:00
2:55 AM,65.3,63.1,93,29.91,1.5,Calm,Calm,-,N/A,,Mist,0,2013-05-10 07:55:00
3:15 AM,65.3,63.3,93,29.90,2.5,East,3.5,-,N/A,,Clear,90,2013-05-10 08:15:00
3:35 AM,64.8,62.8,93,29.91,4.0,Calm,Calm,-,N/A,,Mostly Cloudy,0,2013-05-10 08:35:00
3:55 AM,65.5,63.7,94,29.90,5.0,East,3.5,-,N/A,,Overcast,80,2013-05-10 08:55:00
4:15 AM,66.2,64.0,93,29.90,7.0,Calm,Calm,-,N/A,,Overcast,0,2013-05-10 09:15:00
4:35 AM,66.2,64.0,93,29.90,7.0,Calm,Calm,-,N/A,,Overcast,0,2013-05-10 09:35:00
4:55 AM,66.4,63.9,92,29.90,7.0,Calm,Calm,-,N/A,,Overcast,0,2013-05-10 09:55:00
5:15 AM,66.2,63.9,92,29.91,5.0,Calm,Calm,-,N/A,,Overcast,0,2013-05-10 10:15:00
5:35 AM,66.2,63.9,92,29.92,7.0,Calm,Calm,-,N/A,,Overcast,0,2013-05-10 10:35:00
5:55 AM,66.4,64.0,92,29.94,7.0,Calm,Calm,-,N/A,,Overcast,0,2013-05-10 10:55:00
6:15 AM,66.2,63.7,92,29.95,7.0,Calm,Calm,-,N/A,,Overcast,0,2013-05-10 11:15:00
6:35 AM,66.2,63.7,92,29.96,7.0,Calm,Calm,-,N/A,,Overcast,0,2013-05-10 11:35:00
6:55 AM,66.4,63.5,90,29.95,7.0,Calm,Calm,-,N/A,,Overcast,0,2013-05-10 11:55:00
7:15 AM,66.4,63.5,90,29.96,7.0,Calm,Calm,-,N/A,,Overcast,0,2013-05-10 12:15:00
7:35 AM,66.7,64.0,91,29.95,7.0,Calm,Calm,-,N/A,,Overcast,0,2013-05-10 12:35:00
7:55 AM,67.5,63.9,88,29.96,10.0,Calm,Calm,-,N/A,,Mostly Cloudy,0,2013-05-10 12:55:00
8:15 AM,68.9,64.4,86,29.96,10.0,Calm,Calm,-,N/A,,Overcast,0,2013-05-10 13:15:00
8:35 AM,70.2,65.1,84,29.96,10.0,Calm,Calm,-,N/A,,Mostly Cloudy,0,2013-05-10 13:35:00
8:55 AM,72.5,65.8,80,29.97,10.0,Calm,Calm,-,N/A,,Scattered Clouds,0,2013-05-10 13:55:00
9:15 AM,73.0,65.8,78,29.96,10.0,WSW,3.5,-,N/A,,Scattered Clouds,240,2013-05-10 14:15:00
9:35 AM,74.1,66.6,77,29.96,10.0,Calm,Calm,-,N/A,,Scattered Clouds,0,2013-05-10 14:35:00
9:55 AM,75.4,65.3,71,29.96,10.0,West,3.5,-,N/A,,Scattered Clouds,280,2013-05-10 14:55:00
10:15 AM,75.7,65.3,70,29.97,10.0,SSW,5.8,-,N/A,,Scattered Clouds,210,2013-05-10 15:15:00
10:35 AM,75.9,64.8,68,29.98,10.0,SSE,5.8,-,N/A,,Scattered Clouds,160,2013-05-10 15:35:00
10:55 AM,77.7,65.7,66,29.97,10.0,South,4.6,-,N/A,,Mostly Cloudy,190,2013-05-10 15:55:00
11:15 AM,76.1,64.6,67,29.97,10.0,SSW,3.5,-,N/A,,Mostly Cloudy,210,2013-05-10 16:15:00
11:35 AM,78.6,64.6,62,29.97,10.0,West,5.8,-,N/A,,Scattered Clouds,270,2013-05-10 16:35:00
11:55 AM,77.4,64.8,65,29.97,10.0,WSW,5.8,-,N/A,,Mostly Cloudy,240,2013-05-10 16:55:00
12:15 PM,78.1,64.9,64,29.97,10.0,WSW,8.1,-,N/A,,Mostly Cloudy,240,2013-05-10 17:15:00
12:35 PM,78.4,65.8,65,29.96,10.0,South,4.6,-,N/A,,Scattered Clouds,180,2013-05-10 17:35:00
12:55 PM,79.7,65.1,61,29.95,10.0,SSW,6.9,-,N/A,,Mostly Cloudy,200,2013-05-10 17:55:00
1:15 PM,79.2,65.1,62,29.95,10.0,SSW,8.1,-,N/A,,Scattered Clouds,210,2013-05-10 18:15:00
1:35 PM,79.7,65.8,62,29.95,10.0,South,8.1,-,N/A,,Scattered Clouds,190,2013-05-10 18:35:00
1:55 PM,79.0,66.0,64,29.96,7.0,South,6.9,-,N/A,,Scattered Clouds,190,2013-05-10 18:55:00
2:15 PM,80.2,66.4,63,29.96,10.0,SSW,9.2,-,N/A,,Scattered Clouds,210,2013-05-10 19:15:00
2:35 PM,80.4,65.7,61,29.96,10.0,South,8.1,16.1,N/A,,Clear,170,2013-05-10 19:35:00
2:55 PM,80.8,65.5,59,29.95,10.0,South,6.9,-,N/A,,Scattered Clouds,190,2013-05-10 19:55:00
3:15 PM,80.1,64.8,59,29.93,10.0,South,6.9,-,N/A,,Scattered Clouds,180,2013-05-10 20:15:00
3:35 PM,82.0,64.9,56,29.91,10.0,South,9.2,-,N/A,,Scattered Clouds,180,2013-05-10 20:35:00
3:55 PM,82.4,64.9,55,29.90,10.0,South,8.1,-,N/A,,Clear,180,2013-05-10 20:55:00
4:15 PM,81.5,64.9,57,29.89,10.0,SSW,6.9,-,N/A,,Scattered Clouds,200,2013-05-10 21:15:00
4:35 PM,81.7,65.5,58,29.87,10.0,SSW,8.1,-,N/A,,Scattered Clouds,200,2013-05-10 21:35:00
4:55 PM,81.9,64.9,56,29.87,10.0,SSW,8.1,-,N/A,,Clear,210,2013-05-10 21:55:00
5:15 PM,81.5,63.7,55,29.88,10.0,SW,9.2,-,N/A,,Scattered Clouds,220,2013-05-10 22:15:00
5:35 PM,81.3,64.2,56,29.87,10.0,SSW,5.8,-,N/A,,Clear,210,2013-05-10 22:35:00
5:55 PM,81.0,64.2,57,29.87,10.0,SW,4.6,-,N/A,,Scattered Clouds,230,2013-05-10 22:55:00
6:15 PM,80.8,64.6,58,29.88,10.0,WSW,6.9,-,N/A,,Scattered Clouds,240,2013-05-10 23:15:00
6:35 PM,80.4,64.6,58,29.88,10.0,SSW,5.8,-,N/A,,Clear,200,2013-05-10 23:35:00
6:55 PM,79.2,65.1,62,29.89,10.0,SW,8.1,-,N/A,,Clear,220,2013-05-10 23:55:00
7:15 PM,77.7,65.8,67,29.89,10.0,SSW,4.6,-,N/A,,Clear,200,2013-05-11 00:15:00
7:35 PM,76.1,66.2,71,29.90,10.0,SW,4.6,-,N/A,,Clear,220,2013-05-11 00:35:00
7:55 PM,75.0,66.2,74,29.91,10.0,Calm,Calm,-,N/A,,Clear,0,2013-05-11 00:55:00
8:15 PM,73.2,66.2,79,29.92,10.0,Calm,Calm,-,N/A,,Scattered Clouds,0,2013-05-11 01:15:00
8:35 PM,74.5,66.2,75,29.93,10.0,Calm,Calm,-,N/A,,Mostly Cloudy,0,2013-05-11 01:35:00
8:55 PM,73.4,63.5,71,29.94,10.0,North,9.2,-,N/A,Thunderstorm,Overcast,360,2013-05-11 01:55:00
9:15 PM,72.5,63.3,73,29.96,10.0,North,6.9,-,N/A,Thunderstorm,Overcast,10,2013-05-11 02:15:00
9:35 PM,70.0,62.6,77,29.98,10.0,North,9.2,-,N/A,Rain-Thunderstorm,Light Thunderstorms and Rain,10,2013-05-11 02:35:00
9:55 PM,67.1,63.5,88,29.97,5.0,Calm,Calm,-,0.08,Rain-Thunderstorm,Rain,0,2013-05-11 02:55:00
10:15 PM,67.1,63.9,89,29.99,10.0,Calm,Calm,-,N/A,Thunderstorm,Thunderstorm,0,2013-05-11 03:15:00
10:35 PM,66.7,64.0,91,30.00,7.0,Calm,Calm,-,N/A,Thunderstorm,Mostly Cloudy,0,2013-05-11 03:35:00
10:55 PM,66.0,63.5,92,30.01,5.0,Calm,Calm,-,N/A,,Clear,0,2013-05-11 03:55:00
11:15 PM,66.2,63.7,92,30.01,7.0,Calm,Calm,-,N/A,Thunderstorm,Scattered Clouds,0,2013-05-11 04:15:00
11:35 PM,65.8,63.5,92,29.99,7.0,Calm,Calm,-,N/A,,Scattered Clouds,0,2013-05-11 04:35:00
11:55 PM,65.8,63.5,92,30.02,7.0,Calm,Calm,-,N/A,,Scattered Clouds,0,2013-05-11 04:55:00